Weather observations for the past three days for
Las Vegas Municipal Airport
Imperial (Metric)
Date Time (mdt) Wind (mph) Vis. (mi.) Weather Sky Cond. Temperature (ºF) Relative Humidity Wind Chill (°F) Heat Index (°F) Pressure Precipitation (in)
Air Dwpt 6 hour altimeter (in) sea level (mb) 1 hr 3 hr 6 hr
Max. Min.
06 16:53 S 12 G 22 10.00 NULL NULL 84.9 45 25% 82 30.17 1008.6
06 15:53 SE 15 G 28 10.00 Fair CLR 84.9 46 26% 82 30.17 1009.3
06 14:53 SE 16 G 29 10.00 Fair CLR 86 46 25% 83 30.19 1009.5
06 13:53 E 12 G 23 10.00 Fair CLR 84.9 46 26% 82 30.21 1010.4
06 12:53 E 16 G 23 10.00 NULL NULL 84 46.9 27% 82 30.23 1010.9
06 11:53 S 12 10.00 NULL NULL 82.9 46 82.9 61 27% 81 30.27 1012.5
06 10:53 Calm 10.00 NULL NULL 78.1 48.9 36% 79 30.28 1013.4
06 09:53 NW 7 10.00 Fair CLR 75 52 45% 78 30.27 1013.4
06 08:53 Calm 10.00 Fair CLR 69.1 52 55% 30.28 1014.3
06 07:53 NW 3 10.00 NULL NULL 63 54 73% 30.27 1014.4
06 06:53 Calm 10.00 NULL NULL 62.1 52 70% 30.26 1013.3
06 04:53 SE 7 10.00 NULL NULL 64.9 51.1 61% 30.25 1011.3
06 03:53 NW 3 10.00 NULL NULL 61 53.1 75% 30.25 1012.6
06 02:53 SW 7 10.00 NULL NULL 63 52 68% 30.25 1011.8
06 01:53 SE 9 10.00 NULL NULL 63 52 68% 30.25 1012.1
06 00:53 NE 7 10.00 NULL NULL 64.9 53.1 66% 30.25 1012.1
05 23:53 NE 8 10.00 NULL NULL 63 55 81 63 76% 30.25 1012.6
05 22:53 N 7 10.00 NULL NULL 64 54 70% 30.26 1013.0
05 21:53 W 6 10.00 NULL NULL 64.9 54 68% 30.26 1013.1
05 20:53 W 10 9.00 Light Rain NULL 66.9 54 63% 30.25 1013.3
05 19:53 SW 7 10.00 Overcast OVC090 71.1 53.1 53% 30.24 1013.4
05 18:53 SE 22 G 30 10.00 Breezy NULL 75 48.9 40% 77 30.21 1011.8
05 17:53 SW 6 10.00 Mostly Cloudy BKN100 81 46 84.9 78.1 29% 80 30.19 1010.5
05 16:53 W 8 10.00 Fair CLR 84 46 27% 82 30.19 1009.5
05 15:53 W 5 10.00 NULL NULL 81 46.9 30% 80 30.19 1010.3
05 14:53 W 20 10.00 NULL NULL 82 46 28% 80 30.21 1010.4
05 11:53 S 10 10.00 NULL NULL 78.1 50 78.1 59 37% 79 30.27 1012.9
05 10:53 Vrbl 7 10.00 NULL NULL 75.9 48.9 39% 78 30.27 1013.1
05 09:53 Calm 10.00 NULL NULL 73.9 51.1 45% 30.26 1012.8
05 08:53 Calm 10.00 NULL NULL 68 52 57% 30.26 1013.7
05 07:53 NW 5 10.00 NULL NULL 61 48.9 65% 30.26 1014.2
05 06:53 NW 5 10.00 NULL NULL 62.1 48.9 62% 30.24 1013.3
05 05:53 NE 8 10.00 NULL NULL 60.1 51.1 66.9 60.1 72% 30.24 1012.4
05 04:53 Calm 10.00 NULL NULL 63 51.1 65% 30.23 1011.3
05 03:53 N 5 10.00 NULL NULL 63 51.1 65% 30.22 1011.0
05 02:53 W 5 10.00 Mostly Cloudy BKN100 66 50 56% 30.22 1010.6
05 01:53 S 3 10.00 NULL NULL 66 50 56% 30.23 1011.2
05 00:53 E 7 10.00 A Few Clouds FEW110 63 50 63% 30.24 1011.8
04 23:53 SE 7 10.00 NULL NULL 64.9 51.1 79 64 61% 30.23 1011.4
04 22:53 S 6 10.00 Fair CLR 68 50 53% 30.23 1011.1
04 21:53 SW 10 10.00 NULL NULL 69.1 51.1 53% 30.25 1012.2
04 20:53 S 12 10.00 NULL NULL 68 51.1 55% 30.25 1013.0
04 19:53 S 17 G 28 10.00 NULL NULL 70 48.9 47% 30.24 1012.9
04 18:53 S 22 G 36 10.00 Breezy NULL 71.1 51.1 49% 30.23 1012.4
04 17:53 SW 16 10.00 NULL NULL 80.1 44.1 84.9 80.1 28% 79 30.19 1009.9
04 16:53 S 14 10.00 NULL NULL 82.9 45 26% 81 30.18 1008.6
04 15:53 SW 8 10.00 NULL NULL 82 44.1 26% 80 30.18 1008.9
04 14:53 S 12 G 18 10.00 NULL NULL 82.9 45 26% 81 30.19 1009.7
04 13:53 S 8 G 21 10.00 NULL NULL 82 46.9 29% 80 30.21 1010.2
04 12:53 SW 13 G 20 10.00 NULL NULL 81 48 32% 80 30.23 1010.8
04 11:53 S 10 10.00 Fair CLR 80.1 48 80.1 63 33% 79 30.25 1011.4
04 10:53 SW 10 10.00 NULL NULL 77 48 36% 78 30.25 1011.7
04 09:53 S 7 10.00 NULL NULL 73.9 48.9 41% 30.25 1012.3
04 08:53 S 9 10.00 NULL NULL 70 50 49% 30.24 1012.3
04 07:53 Calm 10.00 NULL NULL 66 50 56% 30.24 1012.3
04 06:53 SE 7 10.00 Mostly Cloudy BKN110 64 48.9 58% 30.22 1011.2
04 05:53 SE 3 10.00 NULL NULL 64.9 48.9 72 64.9 56% 30.21 1010.2
04 04:53 SW 7 10.00 NULL NULL 68 48 49% 30.2 1009.3
04 03:53 S 8 10.00 NULL NULL 68 48 49% 30.19 1008.8
04 02:53 S 8 10.00 NULL NULL 64.9 51.1 61% 30.19 1009.3
04 01:53 S 10 10.00 NULL NULL 66.9 48.9 53% 30.2 1009.5
04 00:53 W 6 7.00 Light Rain NULL 69.1 50 51% 30.2 1009.5
03 23:53 S 8 10.00 NULL NULL 69.1 46 82.9 68 44% 30.2 1009.7
03 22:53 S 12 10.00 NULL NULL 71.1 45 39% 30.2 1010.0
03 21:53 SE 9 10.00 NULL NULL 69.1 44.1 41% 30.21 1010.7
03 20:53 S 7 10.00 NULL NULL 72 44.1 37% 30.19 1010.3
03 19:53 S 8 10.00 NULL NULL 73.9 43 33% 30.17 1010.5
03 18:53 S 12 10.00 NULL NULL 79 43 28% 78 30.16 1010.2
03 17:53 S 13 G 25 10.00 Fair CLR 82.9 42.1 86 80.1 24% 81 30.16 1009.7
Date Time (mdt) Wind (mph) Vis. (mi.) Weather Sky Cond. Air Dwpt Max. Min. Relative Humidity Wind Chill (°F) Heat Index (°F) altimeter (in) sea level (mb) 1 hr 3 hr 6 hr
6 hour
Temperature (ºF) Pressure Precipitation (in)